N8DNY-13 Weather Reports


Display with metric or nautical units.
time (UTC)temp
F
wind
direction
speed
MPH
gust
MPH
rain 1hr
in
rain 24hr
in
rain mn
in
humidity
%
barometer
mb
20260902062704 72 265 0.0 0.0 0.00 0.00 0.00 98 1015.0
20260902061220 73 265 0.0 0.0 0.00 0.00 0.00 97 1015.0
20260902055650 73 265 0.0 0.0 0.00 0.00 0.00 97 1015.2
20260902054140 73 265 0.0 0.0 0.00 0.00 0.00 97 1015.2
20260902052630 73 265 0.0 0.0 0.00 0.00 0.00 97 1015.2
20260902051121 73 265 0.0 0.0 0.00 0.00 0.00 97 1015.4
20260902045611 72 265 0.0 0.0 0.00 0.00 0.00 96 1015.3
20260902044100 73 265 0.0 0.0 0.00 0.00 0.00 96 1015.3
20260902042615 73 265 0.0 0.0 0.00 0.00 0.00 96 1015.3
20260902041101 73 265 0.0 0.0 0.00 0.00 0.00 95 1015.4
20260902035531 73 265 0.0 0.0 0.00 0.03 0.03 95 1015.1
20260902034040 74 264 0.0 0.0 0.00 0.03 0.03 94 1015.1
20260902032510 74 264 0.0 0.0 0.00 0.03 0.03 93 1015.0
20260902031002 75 265 0.0 0.0 0.00 0.03 0.03 93 1014.6
20260902025521 74 264 0.0 0.0 0.00 0.03 0.03 93 1014.1
20260902024001 74 265 0.0 0.0 0.00 0.03 0.03 92 1014.5
20260902022500 74 267 0.0 0.0 0.00 0.03 0.03 93 1014.7
20260902020950 74 267 0.0 0.0 0.00 0.03 0.03 93 1014.9
20260902015500 74 267 0.0 0.0 0.00 0.03 0.03 93 1015.3
20260902013931 74 267 0.0 0.0 0.00 0.03 0.03 93 1015.1
20260902012440 74 267 0.0 0.0 0.00 0.03 0.03 94 1015.3
20260902010910 75 267 0.0 0.0 0.00 0.03 0.03 94 1015.5
20260902005420 75 267 0.0 0.0 0.00 0.03 0.03 94 1019.1
20260902003850 76 267 0.0 0.0 0.00 0.03 0.03 94 1019.1
20260902002340 77 267 0.0 0.0 0.00 0.03 0.03 93 1019.2
20260902000830 77 267 0.0 0.0 0.00 0.03 0.03 93 1019.0
20260901235321 78 267 0.0 0.0 0.00 0.03 0.03 92 1019.4
20260901233810 78 267 0.0 0.0 0.00 0.03 0.03 92 1019.2
20260901232300 78 267 0.0 0.0 0.00 0.03 0.03 91 1019.1
20260901230750 78 271 0.0 0.0 0.00 0.03 0.03 91 1019.3
20260901225241 78 274 0.0 0.0 0.00 0.03 0.03 89 1019.1
20260901223750 78 275 0.0 0.0 0.05 0.03 0.03 88 1019.1
20260901222221 78 263 0.0 1.0 0.00 0.02 0.02 88 1019.2
20260901220711 78 273 0.0 0.0 0.00 0.02 0.02 87 1019.0
20260901215201 77 275 0.0 0.0 0.00 0.02 0.02 88 1019.0
20260901213710 78 279 0.0 0.0 0.12 0.02 0.02 86 1018.7
20260901212140 81 264 0.0 0.0 0.00 0.00 0.00 83 1019.5
20260901210630 81 275 0.0 0.0 0.00 0.00 0.00 80 1019.4
20260901205130 81 281 0.0 1.0 0.00 0.00 0.00 83 1019.7
20260901203640 82 278 0.0 1.0 0.00 0.00 0.00 82 1019.8
20260901202111 82 274 0.0 0.0 0.00 0.00 0.00 79 1019.8
20260901200621 82 276 0.0 0.0 0.00 0.00 0.00 78 1019.8
20260901195111 82 273 0.0 1.0 0.00 0.00 0.00 79 1019.7
20260901193541 84 171 1.0 3.0 0.00 0.00 0.00 75 1020.0
20260901192031 85 256 0.0 1.0 0.00 0.00 0.00 74 1019.8
20260901190528 89 267 0.0 1.0 0.00 0.00 0.00 70 1020.0
20260901185020 89 262 2.0 3.0 0.00 0.00 0.00 70 1019.7
20260901183511 88 271 0.0 1.0 0.00 0.00 0.00 72 1019.7
20260901182003 88 278 0.0 0.0 0.00 0.00 0.00 73 1019.7
20260901180502 86 284 0.0 1.0 0.00 0.00 0.00 74 1019.2
20260901175000 87 283 0.0 2.0 0.00 0.00 0.00 74 1019.4
20260901173450 89 272 0.0 1.0 0.00 0.00 0.00 71 1019.4
20260901171941 88 177 1.0 2.0 0.00 0.00 0.00 72 1019.3
20260901170430 86 281 0.0 1.0 0.00 0.00 0.00 77 1019.3
20260901164940 82 275 0.0 1.0 0.00 0.00 0.00 80 1019.4
20260901163410 81 271 0.0 1.0 0.00 0.00 0.00 79 1019.7
20260901161900 81 232 0.0 1.0 0.00 0.00 0.00 79 1020.0
20260901160351 82 270 0.0 1.0 0.00 0.00 0.00 77 1020.3
20260901154900 86 259 0.0 1.0 0.00 0.00 0.00 75 1020.3
20260901153331 84 308 1.0 2.0 0.00 0.00 0.00 73 1019.9
20260901151821 82 276 0.0 0.0 0.00 0.00 0.00 77 1019.7
20260901150311 82 282 0.0 0.0 0.00 0.00 0.00 77 1019.9
20260901144801 86 280 0.0 1.0 0.00 0.00 0.00 70 1020.0
20260901143250 84 283 0.0 0.0 0.00 0.00 0.00 74 1020.1
20260901141740 82 277 0.0 1.0 0.00 0.00 0.00 77 1020.3
20260901140240 80 274 1.0 1.0 0.00 0.00 0.00 80 1020.7
20260901134731 80 274 0.0 0.0 0.00 0.00 0.00 81 1020.1
20260901130200 81 273 0.0 0.0 0.00 0.00 0.00 79 1019.8
20260901123141 77 280 0.0 0.0 0.00 0.00 0.00 88 1019.7
20260901121650 75 274 0.0 0.0 0.00 0.00 0.00 90 1019.7
20260901120120 75 270 0.0 0.0 0.00 0.00 0.00 91 1019.8
20260901114610 74 272 0.0 0.0 0.00 0.00 0.00 92 1019.7
20260901113120 74 278 0.0 0.0 0.00 0.00 0.00 93 1019.6
20260901111550 74 275 0.0 0.0 0.00 0.00 0.00 93 1019.4
20260901110041 74 274 0.0 0.0 0.00 0.00 0.00 93 1019.3
20260901104531 74 279 0.0 0.0 0.00 0.00 0.00 92 1019.4
20260901103020 74 275 0.0 0.0 0.00 0.00 0.00 92 1019.5
20260901101510 74 282 0.0 0.0 0.00 0.00 0.00 92 1019.4
20260901100002 74 274 0.0 0.0 0.00 0.00 0.00 92 1019.2
20260901094500 74 274 0.0 0.0 0.00 0.00 0.00 92 1019.5
20260901092950 74 274 0.0 0.0 0.00 0.00 0.00 92 1019.1
20260901091440 74 275 0.0 0.0 0.00 0.00 0.00 92 1019.0
20260901085951 74 257 0.0 2.0 0.00 0.00 0.00 93 1018.9
20260901084420 74 273 0.0 0.0 0.00 0.00 0.00 92 1018.8
20260901082910 74 268 0.0 0.0 0.00 0.00 0.00 93 1019.1
20260901081401 74 267 0.0 0.0 0.00 0.00 0.00 92 1019.0
20260901075850 74 267 0.0 0.0 0.00 0.00 0.00 92 1018.7
20260901074340 74 264 0.0 0.0 0.00 0.00 0.00 92 1018.9
20260901072854 75 267 0.0 0.0 0.00 0.00 0.00 91 1019.1
20260901071331 75 275 0.0 0.0 0.00 0.00 0.00 91 1018.8
20260901065821 75 268 0.0 0.0 0.00 0.00 0.00 92 1018.8
20260901064310 75 268 0.0 0.0 0.00 0.00 0.00 91 1018.9